Tracking 25193 objects as of 17-Jan-2022
HD Live streaming from Space Station
objects crossing your sky now

GALAXY 1R

Track GALAXY 1R now!
GALAXY 1R is classified as:


NORAD ID: 23016
Int'l Code: 1994-013A
Perigee: 36,077.1 km
Apogee: 36,105.0 km
Inclination: 11.0 °
Period: 1,451.3 minutes
Semi major axis: 42462 km
RCS: 8.3555 m2 (large)
Launch date: February 19, 1994
Source: United States (US)
Launch site: AIR FORCE EASTERN TEST RANGE (AFETR)

24 C-band; North America, Caribbean.
aabbcc
Your satellite tracking list
Your tracking list is empty




NASA's NSSDC Master Catalog

Two Line Element Set (TLE):
1 23016U 94013A   22016.53035447 -.00000095  00000-0  00000-0 0  9996
2 23016  10.9562  32.8478 0003286 329.1003 223.6789  0.99220554 30181
Source of the keplerian elements: AFSPC